Change the Weather History Date:

Thursday, December 6, 2012

  Actual Average Record
Temperature  
Mean Temperature 26 °F -  
Max Temperature 41 °F 34 °F 48 °F (2014)
Min Temperature 10 °F 24 °F 10 °F (2012)
Degree Days  
Heating Degree Days 40    
Moisture  
Dew Point 29 °F    
Average Humidity 72    
Maximum Humidity 87    
Minimum Humidity 54    
Precipitation  
Precipitation 0.00 in - - ()
Sea Level Pressure  
Sea Level Pressure 29.60 in    
Wind  
Wind Speed 12 mph ()    
Max Wind Speed 36 mph    
Max Gust Speed -    
Visibility 6.2 miles    
Events Rain    
Averages and records for this station are not official NWS values.
T = Trace of Precipitation, MM = Missing Value Source: Averaged Metar Reports

Daily Weather History Graph

Daily Weather History Graph

Search for Another Location

Airport or City:

Trip Planner

Search our weather history database for the weather conditions in past years. The results will help you decide how hot, cold, wet, or windy it might be!

Date:

Astronomy

Dec. 06, 2012 Rise Set
Actual Time 9:49 AM CET 3:38 PM CET
Civil Twilight 8:49 AM CET 4:38 PM CET
Nautical Twilight 7:50 AM CET 5:36 PM CET
Astronomical Twilight 6:57 AM CET 6:29 PM CET
Moon No Moon Rise 12:53 PM CET (12/6)
Length of Visible Light 7h 48m
Length of Day
5h 49m
Waning Gibbous, 52% of the Moon is Illuminated
Dec 6
Waning Gibbous
Dec 6
Last Quarter
Dec 13
New
Dec 20
First Quarter
Dec 28
Full

Hourly Weather History & Observations

Time (CET) Temp. Windchill Dew Point Humidity Pressure Visibility Wind Dir Wind Speed Gust Speed Precip Events Conditions
12:20 AM 37.4 °F 30.3 °F 30.2 °F 75% 29.71 in 6.2 mi NNW 10.4 mph - N/A   Unknown
12:50 AM 37.4 °F 28.9 °F 33.8 °F 87% 29.71 in 6.2 mi North 13.8 mph - N/A   Scattered Clouds
1:00 AM 13 °F - 6 °F 61%  in - NNW 4.5 mph - -  
1:20 AM 35.6 °F 26.2 °F 32.0 °F 87% 29.71 in 6.2 mi NNE 15.0 mph - N/A   Scattered Clouds
1:50 AM 35.6 °F 27.5 °F 32.0 °F 87% 29.68 in 6.2 mi North 11.5 mph - N/A   Partly Cloudy
2:20 AM 35.6 °F 29.9 °F 32.0 °F 87% 29.68 in 6.2 mi North 6.9 mph - N/A   Scattered Clouds
2:50 AM 37.4 °F 31.4 °F 30.2 °F 75% 29.68 in 6.2 mi North 8.1 mph - N/A   Partly Cloudy
3:20 AM 37.4 °F 29.8 °F 32.0 °F 81% 29.68 in 6.2 mi NW 11.5 mph - N/A   Mostly Cloudy
3:50 AM 37.4 °F 29.8 °F 32.0 °F 81% 29.68 in 6.2 mi NNW 11.5 mph - N/A   Partly Cloudy
4:20 AM 35.6 °F 27.1 °F 30.2 °F 81% 29.68 in 6.2 mi North 12.7 mph - N/A   Partly Cloudy
4:50 AM 37.4 °F 32.8 °F 28.4 °F 70% 29.65 in 6.2 mi North 5.8 mph - N/A   Partly Cloudy
5:20 AM 37.4 °F 32.8 °F 28.4 °F 70% 29.65 in 6.2 mi NW 5.8 mph - N/A   Unknown
5:50 AM 37.4 °F 33.8 °F 30.2 °F 75% 29.65 in 6.2 mi NNW 4.6 mph - N/A   Unknown
6:20 AM 37.4 °F 34.9 °F 28.4 °F 70% 29.65 in 6.2 mi NW 3.5 mph - N/A   Unknown
6:50 AM 37.4 °F 34.9 °F 26.6 °F 65% 29.65 in 6.2 mi NW 3.5 mph - N/A   Partly Cloudy
7:00 AM 12 °F - 5 °F 62%  in - WNW 6.7 mph - -  
7:20 AM 37.4 °F 33.8 °F 28.4 °F 70% 29.65 in 6.2 mi West 4.6 mph - N/A   Scattered Clouds
7:50 AM 37.4 °F 34.9 °F 26.6 °F 65% 29.62 in 6.2 mi West 3.5 mph - N/A   Scattered Clouds
8:20 AM 37.4 °F - 26.6 °F 65% 29.62 in 6.2 mi SW 2.3 mph - N/A   Unknown
8:50 AM 37.4 °F - 30.2 °F 75% 29.62 in 6.2 mi Variable 2.3 mph - N/A   Partly Cloudy
9:20 AM 37.4 °F - 30.2 °F 75% 29.62 in 6.2 mi SSW 2.3 mph - N/A   Scattered Clouds
9:50 AM 39.2 °F 37.0 °F 30.2 °F 70% 29.62 in 6.2 mi SSE 3.5 mph - N/A   Partly Cloudy
10:20 AM 39.2 °F 35.9 °F 30.2 °F 70% 29.62 in 6.2 mi SSE 4.6 mph - N/A   Unknown
10:50 AM 39.2 °F 33.6 °F 28.4 °F 65% 29.59 in 6.2 mi Variable 8.1 mph - N/A   Partly Cloudy
11:20 AM 39.2 °F 33.0 °F 30.2 °F 70% 29.59 in 6.2 mi SE 9.2 mph - N/A   Scattered Clouds
11:50 AM 39.2 °F 31.6 °F 28.4 °F 65% 29.59 in 6.2 mi SSE 12.7 mph - N/A   Mostly Cloudy
12:20 PM 39.2 °F 31.6 °F 28.4 °F 65% 29.59 in 6.2 mi SSE 12.7 mph - N/A   Scattered Clouds
12:50 PM 39.2 °F 30.5 °F 33.8 °F 81% 29.56 in 6.2 mi ESE 16.1 mph - N/A   Light Drizzle
1:00 PM 16 °F - 7 °F 54%  in - WNW 4.5 mph - -  
1:20 PM 39.2 °F 31.6 °F 32.0 °F 75% 29.56 in 6.2 mi SE 12.7 mph - N/A   Mostly Cloudy
1:50 PM 39.2 °F 29.8 °F 32.0 °F 75% 29.56 in 6.2 mi SSE 18.4 mph - N/A   Mostly Cloudy
2:20 PM 39.2 °F 30.8 °F 32.0 °F 75% 29.56 in 6.2 mi SE 15.0 mph - N/A   Scattered Clouds
2:50 PM 39.2 °F 30.5 °F 28.4 °F 65% 29.53 in 6.2 mi SSE 16.1 mph - N/A   Unknown
3:20 PM 41.0 °F 32.5 °F 28.4 °F 61% 29.53 in 6.2 mi SE 17.3 mph - N/A   Mostly Cloudy
3:50 PM 41.0 °F 32.5 °F 28.4 °F 61% 29.53 in 6.2 mi SE 17.3 mph - N/A   Mostly Cloudy
4:20 PM 41.0 °F 32.2 °F 28.4 °F 61% 29.53 in 6.2 mi SE 18.4 mph - N/A   Mostly Cloudy
4:50 PM 41.0 °F 31.6 °F 26.6 °F 57% 29.53 in 6.2 mi SE 20.7 mph - N/A   Partly Cloudy
5:20 PM 41.0 °F 31.4 °F 30.2 °F 65% 29.53 in 6.2 mi ESE 21.9 mph - N/A   Mostly Cloudy
5:50 PM 41.0 °F 30.9 °F 28.4 °F 61% 29.53 in 6.2 mi ESE 24.2 mph - N/A   Mostly Cloudy
6:20 PM 41.0 °F 30.5 °F 28.4 °F 61% 29.53 in 6.2 mi ESE 26.5 mph - N/A   Mostly Cloudy
6:50 PM 41.0 °F 30.0 °F 33.8 °F 76% 29.53 in 6.2 mi ESE 28.8 mph - N/A Rain Light Rain Showers
7:00 PM 10 °F - 5 °F 71%  in - West 6.7 mph - -  
7:20 PM 39.2 °F 27.0 °F 33.8 °F 81% 29.53 in 6.2 mi ESE 32.2 mph - N/A   Partly Cloudy
7:50 PM 41.0 °F 29.3 °F 33.8 °F 76% 29.53 in 6.2 mi ESE 33.4 mph - N/A   Mostly Cloudy
8:20 PM 39.2 °F 26.5 °F 35.6 °F 87% 29.53 in 6.2 mi SE 35.7 mph - N/A   Mostly Cloudy
8:50 PM 39.2 °F 26.5 °F 33.8 °F 81% 29.53 in 6.2 mi ESE 35.7 mph - N/A   Partly Cloudy
9:20 PM 41.0 °F 29.0 °F 32.0 °F 70% 29.53 in 6.2 mi ESE 35.7 mph - N/A   Mostly Cloudy
9:50 PM 41.0 °F 29.3 °F 33.8 °F 76% 29.53 in 6.2 mi ESE 33.4 mph - N/A   Mostly Cloudy
10:20 PM 41.0 °F 29.3 °F 32.0 °F 70% 29.56 in 6.2 mi ESE 33.4 mph - N/A   Mostly Cloudy
10:50 PM 41.0 °F 29.3 °F 32.0 °F 70% 29.56 in 6.2 mi ESE 33.4 mph - N/A   Mostly Cloudy
11:20 PM 41.0 °F 29.5 °F 32.0 °F 70% 29.56 in 6.2 mi ESE 32.2 mph - N/A   Mostly Cloudy
11:50 PM 41.0 °F 29.7 °F 32.0 °F 70% 29.59 in 6.2 mi ESE 31.1 mph - N/A   Mostly Cloudy